SCP
0 0 0 0 0 0 0 0 0 0 0 0 0 -0 0 0 0 0 -0 0 -0 0 0 0 0 -0 0 0 0 0 0 -0 -0 -0 0 -0 0 0 0 0 0 -0 -0 0 0 0 0 0 0
0 0 0 0 0 0 0 0 0 0 0 0 0 0 0 0 0 0 0 0 0 0 0 0 0 -0 0 0 0 0 -0 -0 -0 -0 -0 0 0 -0 -0 -0 -0 0 0 0 0 0 0 0 0
0 0 0 0 0 0 0 0 0 0 0 0 0 0 0 0 0 0 0 0 0 0 0 -0 -0 -0 0 0 0 -0 -0 0 0 0 0 -0 -0 -0 0 0 0 0 0 0 0 0 0 0 0
0 0 0 0 0 0 0 0 0 0 0 0 0 0 0 0 -0 -0 0 0 0 0 0 0 -0 -0 0 0 -0 -0 -0 -0 -0 -0 -0 0 -0 0 0 0 0 0 0 0 0 0 0 0 0
0 0 0 0 0 0 0 0 0 0 0 0 0 0 0 0 0 0 0 0 0 0 0 0 0 0 0 0 -0 -0 0 0 0 0 0 0 0 0 0 0 0 0 0 0 0 0 0 0 0
0 0 0 0 0 0 0 0 0 0 0 0 0 0 0 -0 0 0 0 0 0 0 0 0 0 0 0 0 0 0 0 0 0 0 0 0 0 0 0 0 0 0 0 0 0 0 0 0 0
0 0 0 0 0 0 0 0 0 0 0 0 0 0 0 -0 -0 0 0 0 0 0 0 0 0 0 0 0 0 0 0 0 0 0 0 0 0 0 0 0 0 0 0 0 0 0 0 0 0
0 0 0 0 0 0 0 0 0 0 0 0 0 0 0 -0 0 0 0 0 0 0 0 0 0 0 0 0 0 0 0 0 0 0 0 0 0 0 0 0 0 0 0 0 0 0 0 0 0
0 0 0 0 0 0 0 0 0 0 0 0 0 0 0 0 0 0 0 0 0 -0 -0 -0 0 0 0 0 0 0 0 0 0 0 0 0 0 0 0 0 0 0 0 0 0 0 0 0 0
0 0 0 0 0 0 0 0 0 0 0 0 0 0 0 0 0 0 -0 -0 -0 -0 -0 -0 -0 -0 -0 0 0 0 0 0 0 0 0 0 0 0 0 0 0 0 0 0 0 0 0 0 0
0 0 0 0 0 0 0 0 0 0 0 0 0 0 0 0 0 0 -0 -0 -0 -0 -0 -0 -0 -0 0 0 0 0 0 0 0 0 0 0 0 0 0 0 0 0 0 0 0 0 0 0 0
0 0 0 0 0 0 0 0 0 0 0 0 0 0 0 0 0 0 -0 -0 -0 -0 -0 -0 -0 0 0 0 0 0 0 0 0 0 0 0 0 0 0 0 0 0 0 0 0 0 0 0 0
0 0 0 0 0 0 0 0 0 0 0 0 0 0 0 0 0 0 0 0 0 -0 -0 -0 0 0 0 0 0 0 0 0 0 0 0 0 0 0 0 0 0 0 0 0 0 0 0 0 0
0 0 0 0 0 0 0 0 0 0 0 0 0 0 0 0 0 0 0 0 0 0 0 0 0 0 0 0 0 0 0 0 0 0 0 0 0 0 0 0 0 0 0 0 0 0 0 0 0
0 0 0 0 0 0 0 0 0 0 0 0 0 0 0 0 0 0 0 0 0 0 0 0 0 0 0 0 0 0 0 0 0 0 0 0 0 0 0 0 0 0 0 0 0 0 0 0 0
0 0 0 0 0 0 0 0 0 0 0 0 0 0 0 0 0 0 0 0 0 0 0 0 0 0 0 0 0 0 0 0 0 0 0 0 0 0 0 0 0 0 0 0 0 0 0 0 0
0 0 0 0 0 0 0 0 0 0 0 0 0 0 0 0 0 0 0 0 0 0 0 0 0 0 0 0 0 0 0 0 0 0 0 0 -0 -0 0 0 0 0 0 0 0 0 0 0 0
0 0 0 0 0 0 0 0 0 0 0 0 0 0 0 0 0 0 0 0 0 0 0 0 0 0 0 0 0 0 0 0 0 0 0 0 0 0 0 0 0 0 0 0 0 0 0 0 0
0 0 0 0 0 0 0 0 0 0 0 0 0 0 0 0 0 0 0 0 0 0 0 0 0 0 0 0 0 0 0 0 0 0 0 0 0 0 0 0 0 0 0 0 0 0 0 0 0
0 0 0 0 0 0 0 -0 0 0 -0 0 0 0 0 0 0 0 0 0 0 0 0 0 0 0 0 0 0 0 0 0 0 0 0 0 0 0 0 0 0 0 0 0 0 0 0 0 0
0 0 0 0 0 0 0 0 0 0 0 0 0 0 0 0 0 0 0 0 0 0 0 0 0 0 0 0 0 0 0 0 0 0 0 0 0 0 0 0 0 0 0 0 0 0 0 0 0
0 0 0 0 0 0 0 0 0 0 0 0 0 0 0 0 0 0 0 0 0 0 0 0 0 0 0 0 0 0 0 0 0 0 0 0 0 0 0 0 0 0 0 0 0 0 0 0 0
0 0 0 0 0 0 0 0 0 0 0 0 0 0 0 0 0 0 0 0 0 0 0 0 0 0 0 0 0 0 0 0 0 0 0 0 0 0 0 0 0 0 0 0 0 0 0 0 0
0 0 0 0 0 0 0 0 -0 0 0 0 0 0 0 0 0 0 0 0 0 0 0 0 0 0 0 0 0 0 0 0 0 0 0 0 0 0 0 0 0 0 0 0 0 0 0 0 0
0 0 0 0 0 0 0 0 0 0 0 0 0 0 0 0 0 0 0 0 0 0 0 0 0 0 0 0 0 0 0 0 0 0 0 0 0 0 0 0 0 0 0 0 0 0 0 0 0
0 0 0 0 0 0 0 0 0 0 -0 -0 0 0 0 0 0 0 0 0 0 0 0 0 0 0 0 0 0 0 0 0 0 0 0 0 0 0 0 0 0 0 0 0 0 0 0 0 0
0 0 0 0 0 0 0 0 0 -0 0 0 0 0 0 0 0 0 0 0 0 0 0 0 0 0 0 0 0 0 0 0 0 0 0 0 0 0 0 0 0 0 0 0 0 0 0 0 0
0 0 0 0 0 0 0 0 -0 0 0 0 0 0 0 0 0 0 0 0 0 0 0 0 0 0 0 0 0 0 0 0 0 0 0 0 0 0 0 0 0 0 0 0 0 0 0 0 0
0 0 0 0 0 0 0 0 0 0 0 0 0 0 0 0 0 0 0 0 0 0 0 0 0 0 0 0 0 0 0 0 0 0 0 0 0 0 0 0 0 0 0 0 0 0 0 0 0
0 0 0 0 0 0 0 0 0 0 0 0 0 0 0 0 0 0 0 0 0 0 0 0 0 0 0 0 0 0 0 0 0 0 0 0 0 0 0 0 0 0 0 0 0 0 0 0 0
Wind_Speed_500mb
14 11 10 9 5 5 6 8 3 7 6 5 19 10 12 9 4 4 34 28 27 20 12 7 6 7 9 9 13 16 18 14 16 17 11 16 13 7 15 23 19 15 14 10 15 15 12 9 12
11 12 12 10 5 3 6 2 8 6 20 36 30 19 8 5 7 27 37 33 25 14 13 8 6 7 6 9 13 14 14 13 16 13 12 11 16 15 3 14 19 13 22 21 13 15 13 11 12
8 12 12 6 2 6 5 3 9 20 21 10 12 12 9 10 22 43 32 36 29 17 13 9 7 7 6 9 12 14 14 13 12 12 14 16 11 13 19 18 10 15 15 10 9 5 8 9 8
4 5 10 6 12 9 4 2 10 20 9 7 23 16 12 9 33 28 45 32 24 15 12 9 8 7 7 10 12 13 13 15 16 16 14 11 12 14 20 14 13 9 8 10 5 8 6 9 10
18 8 7 6 8 7 4 5 26 6 11 15 9 9 11 35 18 39 41 33 19 12 10 8 7 6 8 11 12 12 14 17 19 20 16 11 12 16 18 16 16 19 11 11 10 9 7 10 12
11 9 7 7 6 6 1 17 11 6 12 17 16 18 17 23 30 43 35 25 18 12 8 7 7 8 9 11 12 13 16 19 20 20 19 18 14 14 19 16 14 21 22 12 8 7 9 12 11
16 7 7 4 5 2 2 10 7 11 14 8 29 12 12 28 42 39 31 24 18 15 9 6 7 8 9 11 13 15 18 20 21 22 22 22 21 17 16 18 12 15 22 16 14 17 18 18 16
26 8 4 5 7 11 2 4 8 5 4 28 21 11 14 45 50 43 35 24 18 11 11 8 7 8 10 11 14 16 18 20 22 22 22 22 21 20 18 17 16 19 21 23 19 17 18 19 21
33 8 6 8 9 9 5 4 5 8 26 10 12 19 20 60 48 45 38 29 21 14 14 10 8 9 11 12 15 17 19 19 20 21 22 24 25 26 23 20 17 18 20 22 22 20 16 19 24
11 15 15 1 4 7 10 2 12 8 14 5 10 16 39 62 50 44 38 31 27 19 16 11 9 10 13 14 16 17 18 18 19 22 24 26 27 27 27 26 24 22 20 22 28 29 29 32 29
6 26 13 7 3 10 5 3 7 18 6 10 16 35 60 63 52 42 36 30 22 17 17 13 12 12 14 15 16 16 16 17 20 22 24 24 25 27 29 30 30 30 27 25 24 26 28 29 34
14 27 27 19 2 17 1 4 5 10 5 8 11 36 66 64 57 47 40 33 24 19 17 13 13 12 15 15 14 13 12 14 18 21 24 26 28 28 30 34 35 32 28 26 25 25 27 31 37
10 11 31 28 12 25 14 3 6 6 3 8 20 43 62 59 54 44 34 27 24 19 18 15 14 13 12 11 9 7 8 12 17 20 24 26 28 30 31 34 35 34 32 31 30 31 31 32 35
17 18 20 18 14 16 7 3 3 2 1 13 29 46 56 53 53 44 37 30 27 19 18 17 13 10 8 6 3 2 8 14 15 17 20 24 28 31 33 34 36 39 35 32 33 33 33 34 37
29 15 6 10 6 5 3 5 3 1 5 16 31 43 51 48 50 44 35 30 23 23 20 13 9 8 9 8 6 8 9 11 13 20 23 25 28 31 33 33 35 36 34 33 33 35 36 39 43
10 9 17 7 13 1 6 8 3 7 11 17 26 38 43 45 45 43 32 26 25 26 19 17 14 13 14 15 13 14 14 14 17 19 22 23 27 30 33 34 36 31 30 33 33 37 38 40 44
7 9 20 8 7 7 4 5 6 12 13 18 24 34 38 40 44 42 38 33 26 24 24 24 22 20 19 18 18 16 15 15 16 17 21 26 35 35 34 30 28 25 29 30 33 37 42 46 50
16 13 11 9 18 7 8 8 6 14 20 23 27 32 33 41 46 43 44 39 36 29 22 28 27 23 21 18 16 17 14 15 17 18 22 28 27 25 22 23 26 29 29 31 33 39 40 45 53
20 13 15 4 10 9 14 19 19 28 23 27 31 29 34 39 39 47 47 43 44 37 27 27 27 23 19 18 20 20 17 20 18 18 22 20 24 21 21 24 25 28 30 32 36 42 46 52 54
31 26 8 7 7 4 5 29 14 19 18 40 45 41 39 36 37 39 43 45 48 46 36 29 27 24 21 22 25 20 20 18 16 11 19 24 24 23 23 23 25 28 29 31 35 41 50 53 55
10 28 12 11 10 5 5 13 19 12 25 31 42 46 41 44 43 41 42 41 42 43 38 32 29 25 27 29 27 21 21 19 19 18 18 18 18 18 20 23 26 29 33 36 38 40 44 51 53
10 13 22 28 18 8 12 12 14 22 20 19 52 53 49 51 49 46 44 45 45 44 40 35 32 30 31 31 27 25 23 21 22 14 12 11 14 17 20 23 25 27 31 34 39 43 46 50 55
0 3 24 15 12 4 10 6 6 8 13 24 46 63 58 54 56 53 48 48 45 43 39 36 35 33 29 24 22 21 19 17 12 8 7 11 14 16 18 20 24 29 34 38 43 46 48 51 58
24 11 15 8 6 11 14 16 9 12 20 18 40 67 72 58 51 48 46 46 45 42 40 40 36 30 25 19 15 13 12 10 7 5 7 7 9 13 18 24 30 35 40 45 50 55 57 60 63
10 13 3 2 7 12 4 14 23 14 16 23 32 53 71 63 59 55 52 49 44 43 40 36 32 27 20 15 13 12 10 8 6 4 2 4 10 16 23 30 35 41 47 52 58 62 65 67 71
13 12 9 11 9 5 3 13 11 8 21 40 38 48 67 64 59 57 55 50 46 44 43 38 31 24 20 17 16 14 12 8 6 3 4 11 19 27 33 39 43 48 53 59 64 69 71 74 75
5 6 6 9 4 5 8 10 21 2 10 8 16 40 60 69 65 63 59 54 54 51 43 36 29 24 21 19 16 14 9 7 4 5 12 19 27 34 39 45 50 54 59 64 71 75 76 78 79
9 7 8 1 9 9 6 8 9 8 9 11 15 32 55 67 68 67 64 61 55 48 41 35 28 23 20 17 13 10 7 5 6 12 19 25 31 39 47 52 55 59 63 69 74 80 83 85 84
5 4 5 3 3 6 3 9 10 13 12 15 22 41 59 72 72 70 65 59 52 46 41 37 32 25 19 15 15 12 7 8 12 17 23 30 39 47 53 55 59 64 71 77 83 85 88 89 88
4 3 7 5 8 5 3 11 6 15 15 17 29 45 56 68 71 68 63 57 53 50 46 39 34 25 19 20 16 12 12 14 18 23 30 38 44 50 54 58 64 71 78 84 88 89 86 86 87
Wind_Direction_500mb
146 151 163 107 34 57 255 255 120 124 116 118 131 145 157 76 145 152 143 143 146 162 176 151 100 65 60 63 66 73 81 92 88 62 79 68 43 102 37 65 63 51 40 62 69 64 29 18 349
142 157 165 88 110 281 261 227 166 154 131 117 106 106 64 94 111 140 142 142 151 166 161 132 89 60 64 73 78 78 73 91 105 83 64 99 55 34 44 49 55 48 81 59 68 63 50 4 7
97 173 143 97 197 219 246 218 143 125 123 134 111 88 97 116 140 144 146 151 158 164 147 114 81 65 65 81 80 72 65 67 81 88 95 98 68 42 85 68 62 36 97 78 88 92 26 353 352
198 110 80 87 231 249 241 287 152 143 101 126 124 81 101 139 153 158 145 158 163 158 136 104 72 60 80 85 82 75 67 63 59 63 89 100 82 55 84 54 31 19 40 51 48 31 335 347 5
206 138 90 255 267 266 323 188 155 115 123 135 142 126 100 146 163 150 151 158 161 165 140 99 76 74 85 86 82 73 64 58 54 51 53 47 46 49 88 56 30 13 42 46 40 51 41 13 3
162 136 167 225 243 290 182 163 163 116 140 143 113 114 146 178 159 154 155 155 164 182 149 106 76 81 94 97 88 77 67 61 56 52 47 43 42 31 33 61 23 4 33 63 34 17 10 11 359
163 117 167 245 233 32 59 204 203 148 143 169 143 118 150 170 160 151 160 164 160 153 147 117 90 95 107 101 89 77 67 61 56 52 49 45 42 34 27 32 38 18 14 33 16 2 5 357 341
184 101 145 245 209 184 321 203 150 133 137 138 155 153 176 170 161 159 162 162 161 155 151 134 108 105 110 100 88 77 71 67 61 57 54 51 46 43 36 25 12 1 1 2 355 355 351 347 339
168 111 201 209 196 124 320 145 158 128 145 162 174 162 175 159 167 164 165 169 173 180 167 148 123 117 116 106 93 86 78 72 67 61 56 52 47 41 36 28 17 4 355 356 355 358 357 350 346
148 174 199 218 251 108 298 80 165 152 150 139 153 171 166 164 171 171 174 176 183 184 172 156 136 123 119 110 102 91 79 66 60 57 51 47 42 36 31 24 17 9 360 359 358 356 358 350 346
140 189 157 190 266 117 23 213 173 149 226 200 184 163 167 170 175 179 179 187 179 183 178 163 153 130 122 118 107 95 79 68 60 51 41 34 28 22 17 13 10 11 7 2 359 355 358 349 343
145 190 156 174 41 102 201 200 154 188 173 206 196 178 172 177 179 183 187 190 187 188 178 172 158 138 130 121 107 94 76 60 47 38 25 19 13 8 6 5 2 359 359 358 353 349 345 344 344
135 146 149 139 115 67 132 173 165 162 300 195 177 177 180 183 182 184 190 196 198 192 184 170 162 153 144 131 115 99 53 33 19 9 3 356 352 355 358 353 349 347 348 351 350 348 343 342 343
148 135 137 156 112 83 106 332 219 73 148 158 175 181 185 189 185 185 190 202 204 197 184 189 180 179 176 168 149 49 14 16 349 333 334 335 336 337 336 338 340 338 337 340 341 341 340 340 336
131 118 102 189 130 98 179 142 172 101 144 162 177 188 191 190 191 193 199 204 202 191 190 188 194 211 223 233 261 292 302 301 319 323 325 326 327 325 326 328 329 330 330 331 336 332 336 337 333
120 118 177 188 147 192 129 251 197 172 155 163 187 191 194 196 196 201 206 211 206 206 210 211 208 207 229 238 254 272 287 302 310 316 321 326 322 320 317 319 320 325 329 331 336 339 336 332 327
179 159 167 186 186 127 179 222 172 181 182 184 193 197 201 203 203 208 213 211 210 220 226 223 231 228 236 239 251 273 291 300 308 314 314 318 315 312 310 308 314 332 338 344 336 334 329 329 327
159 123 158 151 181 174 159 229 216 205 201 211 203 204 207 213 211 215 221 219 220 225 236 222 229 231 239 246 265 277 283 292 300 302 308 311 312 321 329 342 342 344 340 338 332 327 328 327 326
143 131 148 134 155 150 218 238 215 207 204 221 226 216 215 218 216 219 222 222 223 226 229 221 230 235 238 248 258 261 267 280 282 290 297 295 312 313 324 331 332 333 335 334 331 327 329 332 333
151 174 143 61 107 115 324 262 244 182 214 218 223 220 221 221 219 217 216 222 226 222 220 224 222 223 238 249 260 249 256 263 265 269 277 291 307 317 325 335 336 335 335 334 332 330 329 331 335
159 173 167 136 131 42 117 261 246 228 220 224 230 232 222 221 217 216 215 214 211 214 217 226 225 233 241 248 251 238 242 244 258 266 283 301 314 327 335 336 337 338 337 338 336 334 330 326 332
163 173 153 134 149 211 189 263 221 206 212 210 222 222 221 217 213 215 211 208 208 209 212 221 232 241 243 247 244 238 236 241 260 267 284 310 328 328 333 340 343 343 342 340 339 338 334 328 326
317 156 151 163 149 175 183 264 235 136 226 229 224 220 221 217 211 209 207 204 203 206 214 224 230 233 238 233 232 235 236 244 258 264 298 318 324 339 345 347 343 343 341 338 336 331 327 325 320
138 83 49 60 57 247 198 194 232 179 210 231 219 219 215 208 202 202 201 199 200 204 211 217 225 223 215 212 215 224 235 235 238 283 300 324 346 347 343 339 339 337 334 331 330 327 324 320 315
113 126 28 136 189 243 350 205 253 247 240 228 215 212 212 203 198 198 197 192 193 199 204 202 193 195 197 202 211 211 213 219 240 244 285 344 341 334 333 333 333 332 329 327 324 321 320 318 315
145 161 155 184 195 176 2 236 244 266 280 253 243 217 212 199 198 197 196 194 193 191 184 185 189 196 197 196 201 206 213 206 197 224 328 334 332 334 336 334 329 326 326 324 321 318 318 316 314
141 119 85 104 38 69 208 276 287 8 278 297 200 193 194 195 193 195 193 190 183 181 184 189 193 192 192 196 204 196 189 193 217 313 326 326 332 333 330 326 325 326 325 322 319 318 319 317 316
60 130 98 24 161 231 245 258 246 325 285 230 192 190 188 192 190 187 184 180 181 183 185 187 190 192 194 197 191 191 203 228 299 314 318 325 325 325 327 325 324 323 321 321 320 320 320 317 317
131 150 73 123 173 178 303 260 211 255 261 248 208 193 189 189 187 184 181 182 183 185 190 192 191 191 195 196 199 210 236 279 296 307 313 318 325 326 325 322 321 322 323 323 322 320 319 318 316
53 155 160 175 202 240 137 274 220 269 270 245 190 190 193 191 187 185 183 184 187 192 193 195 194 193 195 201 209 232 258 278 296 312 317 320 322 322 320 321 324 324 324 322 321 320 321 319 319
Wind_Speed_850mb
14 11 10 9 5 5 6 8 3 7 6 5 19 10 12 9 4 4 34 28 27 20 12 7 6 7 9 9 13 16 18 14 16 17 11 16 13 7 15 23 19 15 14 10 15 15 12 9 12
11 12 12 10 5 3 6 2 8 6 20 36 30 19 8 5 7 27 37 33 25 14 13 8 6 7 6 9 13 14 14 13 16 13 12 11 16 15 3 14 19 13 22 21 13 15 13 11 12
8 12 12 6 2 6 5 3 9 20 21 10 12 12 9 10 22 43 32 36 29 17 13 9 7 7 6 9 12 14 14 13 12 12 14 16 11 13 19 18 10 15 15 10 9 5 8 9 8
4 5 10 6 12 9 4 2 10 20 9 7 23 16 12 9 33 28 45 32 24 15 12 9 8 7 7 10 12 13 13 15 16 16 14 11 12 14 20 14 13 9 8 10 5 8 6 9 10
18 8 7 6 8 7 4 5 26 6 11 15 9 9 11 35 18 39 41 33 19 12 10 8 7 6 8 11 12 12 14 17 19 20 16 11 12 16 18 16 16 19 11 11 10 9 7 10 12
11 9 7 7 6 6 1 17 11 6 12 17 16 18 17 23 30 43 35 25 18 12 8 7 7 8 9 11 12 13 16 19 20 20 19 18 14 14 19 16 14 21 22 12 8 7 9 12 11
16 7 7 4 5 2 2 10 7 11 14 8 29 12 12 28 42 39 31 24 18 15 9 6 7 8 9 11 13 15 18 20 21 22 22 22 21 17 16 18 12 15 22 16 14 17 18 18 16
26 8 4 5 7 11 2 4 8 5 4 28 21 11 14 45 50 43 35 24 18 11 11 8 7 8 10 11 14 16 18 20 22 22 22 22 21 20 18 17 16 19 21 23 19 17 18 19 21
33 8 6 8 9 9 5 4 5 8 26 10 12 19 20 60 48 45 38 29 21 14 14 10 8 9 11 12 15 17 19 19 20 21 22 24 25 26 23 20 17 18 20 22 22 20 16 19 24
11 15 15 1 4 7 10 2 12 8 14 5 10 16 39 62 50 44 38 31 27 19 16 11 9 10 13 14 16 17 18 18 19 22 24 26 27 27 27 26 24 22 20 22 28 29 29 32 29
6 26 13 7 3 10 5 3 7 18 6 10 16 35 60 63 52 42 36 30 22 17 17 13 12 12 14 15 16 16 16 17 20 22 24 24 25 27 29 30 30 30 27 25 24 26 28 29 34
14 27 27 19 2 17 1 4 5 10 5 8 11 36 66 64 57 47 40 33 24 19 17 13 13 12 15 15 14 13 12 14 18 21 24 26 28 28 30 34 35 32 28 26 25 25 27 31 37
10 11 31 28 12 25 14 3 6 6 3 8 20 43 62 59 54 44 34 27 24 19 18 15 14 13 12 11 9 7 8 12 17 20 24 26 28 30 31 34 35 34 32 31 30 31 31 32 35
17 18 20 18 14 16 7 3 3 2 1 13 29 46 56 53 53 44 37 30 27 19 18 17 13 10 8 6 3 2 8 14 15 17 20 24 28 31 33 34 36 39 35 32 33 33 33 34 37
29 15 6 10 6 5 3 5 3 1 5 16 31 43 51 48 50 44 35 30 23 23 20 13 9 8 9 8 6 8 9 11 13 20 23 25 28 31 33 33 35 36 34 33 33 35 36 39 43
10 9 17 7 13 1 6 8 3 7 11 17 26 38 43 45 45 43 32 26 25 26 19 17 14 13 14 15 13 14 14 14 17 19 22 23 27 30 33 34 36 31 30 33 33 37 38 40 44
7 9 20 8 7 7 4 5 6 12 13 18 24 34 38 40 44 42 38 33 26 24 24 24 22 20 19 18 18 16 15 15 16 17 21 26 35 35 34 30 28 25 29 30 33 37 42 46 50
16 13 11 9 18 7 8 8 6 14 20 23 27 32 33 41 46 43 44 39 36 29 22 28 27 23 21 18 16 17 14 15 17 18 22 28 27 25 22 23 26 29 29 31 33 39 40 45 53
20 13 15 4 10 9 14 19 19 28 23 27 31 29 34 39 39 47 47 43 44 37 27 27 27 23 19 18 20 20 17 20 18 18 22 20 24 21 21 24 25 28 30 32 36 42 46 52 54
31 26 8 7 7 4 5 29 14 19 18 40 45 41 39 36 37 39 43 45 48 46 36 29 27 24 21 22 25 20 20 18 16 11 19 24 24 23 23 23 25 28 29 31 35 41 50 53 55
10 28 12 11 10 5 5 13 19 12 25 31 42 46 41 44 43 41 42 41 42 43 38 32 29 25 27 29 27 21 21 19 19 18 18 18 18 18 20 23 26 29 33 36 38 40 44 51 53
10 13 22 28 18 8 12 12 14 22 20 19 52 53 49 51 49 46 44 45 45 44 40 35 32 30 31 31 27 25 23 21 22 14 12 11 14 17 20 23 25 27 31 34 39 43 46 50 55
0 3 24 15 12 4 10 6 6 8 13 24 46 63 58 54 56 53 48 48 45 43 39 36 35 33 29 24 22 21 19 17 12 8 7 11 14 16 18 20 24 29 34 38 43 46 48 51 58
24 11 15 8 6 11 14 16 9 12 20 18 40 67 72 58 51 48 46 46 45 42 40 40 36 30 25 19 15 13 12 10 7 5 7 7 9 13 18 24 30 35 40 45 50 55 57 60 63
10 13 3 2 7 12 4 14 23 14 16 23 32 53 71 63 59 55 52 49 44 43 40 36 32 27 20 15 13 12 10 8 6 4 2 4 10 16 23 30 35 41 47 52 58 62 65 67 71
13 12 9 11 9 5 3 13 11 8 21 40 38 48 67 64 59 57 55 50 46 44 43 38 31 24 20 17 16 14 12 8 6 3 4 11 19 27 33 39 43 48 53 59 64 69 71 74 75
5 6 6 9 4 5 8 10 21 2 10 8 16 40 60 69 65 63 59 54 54 51 43 36 29 24 21 19 16 14 9 7 4 5 12 19 27 34 39 45 50 54 59 64 71 75 76 78 79
9 7 8 1 9 9 6 8 9 8 9 11 15 32 55 67 68 67 64 61 55 48 41 35 28 23 20 17 13 10 7 5 6 12 19 25 31 39 47 52 55 59 63 69 74 80 83 85 84
5 4 5 3 3 6 3 9 10 13 12 15 22 41 59 72 72 70 65 59 52 46 41 37 32 25 19 15 15 12 7 8 12 17 23 30 39 47 53 55 59 64 71 77 83 85 88 89 88
4 3 7 5 8 5 3 11 6 15 15 17 29 45 56 68 71 68 63 57 53 50 46 39 34 25 19 20 16 12 12 14 18 23 30 38 44 50 54 58 64 71 78 84 88 89 86 86 87
Wind_Direction_850mb
146 151 163 107 34 57 255 255 120 124 116 118 131 145 157 76 145 152 143 143 146 162 176 151 100 65 60 63 66 73 81 92 88 62 79 68 43 102 37 65 63 51 40 62 69 64 29 18 349
142 157 165 88 110 281 261 227 166 154 131 117 106 106 64 94 111 140 142 142 151 166 161 132 89 60 64 73 78 78 73 91 105 83 64 99 55 34 44 49 55 48 81 59 68 63 50 4 7
97 173 143 97 197 219 246 218 143 125 123 134 111 88 97 116 140 144 146 151 158 164 147 114 81 65 65 81 80 72 65 67 81 88 95 98 68 42 85 68 62 36 97 78 88 92 26 353 352
198 110 80 87 231 249 241 287 152 143 101 126 124 81 101 139 153 158 145 158 163 158 136 104 72 60 80 85 82 75 67 63 59 63 89 100 82 55 84 54 31 19 40 51 48 31 335 347 5
206 138 90 255 267 266 323 188 155 115 123 135 142 126 100 146 163 150 151 158 161 165 140 99 76 74 85 86 82 73 64 58 54 51 53 47 46 49 88 56 30 13 42 46 40 51 41 13 3
162 136 167 225 243 290 182 163 163 116 140 143 113 114 146 178 159 154 155 155 164 182 149 106 76 81 94 97 88 77 67 61 56 52 47 43 42 31 33 61 23 4 33 63 34 17 10 11 359
163 117 167 245 233 32 59 204 203 148 143 169 143 118 150 170 160 151 160 164 160 153 147 117 90 95 107 101 89 77 67 61 56 52 49 45 42 34 27 32 38 18 14 33 16 2 5 357 341
184 101 145 245 209 184 321 203 150 133 137 138 155 153 176 170 161 159 162 162 161 155 151 134 108 105 110 100 88 77 71 67 61 57 54 51 46 43 36 25 12 1 1 2 355 355 351 347 339
168 111 201 209 196 124 320 145 158 128 145 162 174 162 175 159 167 164 165 169 173 180 167 148 123 117 116 106 93 86 78 72 67 61 56 52 47 41 36 28 17 4 355 356 355 358 357 350 346
148 174 199 218 251 108 298 80 165 152 150 139 153 171 166 164 171 171 174 176 183 184 172 156 136 123 119 110 102 91 79 66 60 57 51 47 42 36 31 24 17 9 360 359 358 356 358 350 346
140 189 157 190 266 117 23 213 173 149 226 200 184 163 167 170 175 179 179 187 179 183 178 163 153 130 122 118 107 95 79 68 60 51 41 34 28 22 17 13 10 11 7 2 359 355 358 349 343
145 190 156 174 41 102 201 200 154 188 173 206 196 178 172 177 179 183 187 190 187 188 178 172 158 138 130 121 107 94 76 60 47 38 25 19 13 8 6 5 2 359 359 358 353 349 345 344 344
135 146 149 139 115 67 132 173 165 162 300 195 177 177 180 183 182 184 190 196 198 192 184 170 162 153 144 131 115 99 53 33 19 9 3 356 352 355 358 353 349 347 348 351 350 348 343 342 343
148 135 137 156 112 83 106 332 219 73 148 158 175 181 185 189 185 185 190 202 204 197 184 189 180 179 176 168 149 49 14 16 349 333 334 335 336 337 336 338 340 338 337 340 341 341 340 340 336
131 118 102 189 130 98 179 142 172 101 144 162 177 188 191 190 191 193 199 204 202 191 190 188 194 211 223 233 261 292 302 301 319 323 325 326 327 325 326 328 329 330 330 331 336 332 336 337 333
120 118 177 188 147 192 129 251 197 172 155 163 187 191 194 196 196 201 206 211 206 206 210 211 208 207 229 238 254 272 287 302 310 316 321 326 322 320 317 319 320 325 329 331 336 339 336 332 327
179 159 167 186 186 127 179 222 172 181 182 184 193 197 201 203 203 208 213 211 210 220 226 223 231 228 236 239 251 273 291 300 308 314 314 318 315 312 310 308 314 332 338 344 336 334 329 329 327
159 123 158 151 181 174 159 229 216 205 201 211 203 204 207 213 211 215 221 219 220 225 236 222 229 231 239 246 265 277 283 292 300 302 308 311 312 321 329 342 342 344 340 338 332 327 328 327 326
143 131 148 134 155 150 218 238 215 207 204 221 226 216 215 218 216 219 222 222 223 226 229 221 230 235 238 248 258 261 267 280 282 290 297 295 312 313 324 331 332 333 335 334 331 327 329 332 333
151 174 143 61 107 115 324 262 244 182 214 218 223 220 221 221 219 217 216 222 226 222 220 224 222 223 238 249 260 249 256 263 265 269 277 291 307 317 325 335 336 335 335 334 332 330 329 331 335
159 173 167 136 131 42 117 261 246 228 220 224 230 232 222 221 217 216 215 214 211 214 217 226 225 233 241 248 251 238 242 244 258 266 283 301 314 327 335 336 337 338 337 338 336 334 330 326 332
163 173 153 134 149 211 189 263 221 206 212 210 222 222 221 217 213 215 211 208 208 209 212 221 232 241 243 247 244 238 236 241 260 267 284 310 328 328 333 340 343 343 342 340 339 338 334 328 326
317 156 151 163 149 175 183 264 235 136 226 229 224 220 221 217 211 209 207 204 203 206 214 224 230 233 238 233 232 235 236 244 258 264 298 318 324 339 345 347 343 343 341 338 336 331 327 325 320
138 83 49 60 57 247 198 194 232 179 210 231 219 219 215 208 202 202 201 199 200 204 211 217 225 223 215 212 215 224 235 235 238 283 300 324 346 347 343 339 339 337 334 331 330 327 324 320 315
113 126 28 136 189 243 350 205 253 247 240 228 215 212 212 203 198 198 197 192 193 199 204 202 193 195 197 202 211 211 213 219 240 244 285 344 341 334 333 333 333 332 329 327 324 321 320 318 315
145 161 155 184 195 176 2 236 244 266 280 253 243 217 212 199 198 197 196 194 193 191 184 185 189 196 197 196 201 206 213 206 197 224 328 334 332 334 336 334 329 326 326 324 321 318 318 316 314
141 119 85 104 38 69 208 276 287 8 278 297 200 193 194 195 193 195 193 190 183 181 184 189 193 192 192 196 204 196 189 193 217 313 326 326 332 333 330 326 325 326 325 322 319 318 319 317 316
60 130 98 24 161 231 245 258 246 325 285 230 192 190 188 192 190 187 184 180 181 183 185 187 190 192 194 197 191 191 203 228 299 314 318 325 325 325 327 325 324 323 321 321 320 320 320 317 317
131 150 73 123 173 178 303 260 211 255 261 248 208 193 189 189 187 184 181 182 183 185 190 192 191 191 195 196 199 210 236 279 296 307 313 318 325 326 325 322 321 322 323 323 322 320 319 318 316
53 155 160 175 202 240 137 274 220 269 270 245 190 190 193 191 187 185 183 184 187 192 193 195 194 193 195 201 209 232 258 278 296 312 317 320 322 322 320 321 324 324 324 322 321 320 321 319 319